Location: Clayton
(37.9410°N, 121.9358°W)
Time: 15:11:06
(UTC+00:00)

Daily predictions for brighter satellites

Satellite Brightness Start Highest point End
(mag) Time Altitude Azimuth Time Altitude Azimuth Time Altitude Azimuth
Cosmos 2061 Rocket 4.2 12:00:22 10° N 12:06:46 81° E 12:13:04 10° S
Cosmos 2263 Rocket 2.2 12:02:22 10° NNW 12:07:56 67° WSW 12:13:30 10° S
AQUA 3.8 12:04:38 10° N 12:09:20 76° WNW 12:13:59 10° SSW
